Daichi

operational
NORAD ID: 28931 Int'l Des: 2006-002 Owner: JAXA Country: J
LEOCIRCULARRETROGRADESSO

Daichiについて

説明を読み込み中...

リアルタイム位置

3D地球を読み込み中...

次回通過

高度履歴

Altitude vs Time

uPlot chart will show altitude changes over time

軌道要素

1 28931U 06002A 25278.45957983 .00002728 00000-0 47205-3 0 9995
2 28931 98.0963 230.4889 0002345 78.1626 281.9842 14.69142754 50684
Epoch: Oct 5, 2025 • Age: 18 hours

現在のステータス

高度 675.7 km
速度 7.53 km/s
衛星直下点 81.60°N, 28°E
打ち上げ日 Jan 24, 2006
運用期間 19.6 years
タイプ other

技術仕様

分類 Payload
質量 4000.00 kg
乾燥質量 3800.00 kg
総質量 4000.00 kg
長さ 6.50 m
直径 4.50 m
スパン 28.00 m
形状 Box + 2 Pan
製造者 TSUK/NECTF
バスタイプ ALOS
フェーズステータス In Orbit
所有者/国 JAXA/J

大規模コンステレーション

Loading constellations...